Dewpoint
40 40 39 39 39 38 38 37 37 37 37 37 37 37 37 37 37 37 37 36 35 34 34 33 32 32 32 32 32 32 30 30 27 28 23 27 23 28 31 31 28 25 25
37 36 36 35 35 34 34 33 34 33 34 34 33 33 33 33 33 33 32 32 32 31 31 31 30 32 31 31 31 30 30 30 28 25 26 27 27 29 27 24 22 21 21
34 33 33 33 32 32 32 32 32 31 31 32 32 32 32 32 32 32 32 31 31 30 29 27 27 26 26 28 29 28 30 30 30 28 27 29 28 26 25 25 25 24 23
32 31 31 31 30 29 28 28 28 28 28 29 30 30 30 30 30 29 29 28 28 28 25 24 24 25 25 25 25 25 26 25 25 24 22 22 20 20 13 14 12 12 12
30 29 29 28 27 26 25 25 25 24 24 25 25 25 25 27 28 25 24 23 22 21 22 21 20 20 20 20 20 18 18 17 17 15 14 10 8 9 9 10 9 9 8
27 27 26 25 24 23 22 22 22 22 22 22 21 21 21 22 22 23 21 18 17 16 17 17 16 17 18 18 17 16 15 13 11 9 6 5 4 6 9 8 7 7 5
25 25 23 22 20 20 20 19 19 19 19 20 21 21 20 19 20 19 17 15 12 11 11 12 11 11 15 13 12 10 12 14 14 6 3 4 5 6 7 7 6 5 3
19 19 19 19 18 18 18 17 17 17 17 17 18 19 19 19 20 19 15 10 7 4 4 7 11 11 13 13 7 3 6 6 7 3 5 5 6 7 7 6 4 2 0
16 16 17 16 16 16 16 15 16 15 14 15 15 16 16 16 21 18 14 9 6 6 -0 2 6 10 15 16 7 3 5 5 8 9 10 10 10 10 8 3 -3 -4 -7
14 14 15 14 13 13 13 13 14 14 13 12 11 13 14 13 19 19 13 12 8 8 6 1 9 12 14 14 7 3 7 6 -0 1 -0 0 1 1 6 0 -2 -6 -7
14 14 13 13 13 12 11 11 11 11 11 12 13 13 12 13 13 18 18 10 10 10 8 4 2 13 13 12 11 5 7 6 -0 -3 -4 -4 -4 -3 -3 -3 -2 -3 -6
11 11 12 13 13 13 11 11 10 9 8 9 9 10 12 12 15 16 17 16 14 9 8 5 2 11 10 9 6 9 9 2 -5 -7 -8 -8 -7 -6 -5 -4 -3 -3 -3
6 6 8 9 11 12 11 11 10 9 7 7 6 6 8 12 12 14 14 14 12 8 9 8 7 8 7 2 5 6 -0 -7 -8 -10 -10 -9 -8 -7 -6 -6 -5 -5 -5
2 3 3 4 5 8 9 9 10 10 8 7 6 5 6 9 10 10 10 10 11 7 2 -6 1 1 1 -0 -6 -5 -7 -8 -9 -10 -10 -9 -9 -9 -8 -7 -7 -7 -8
2 1 1 0 0 -0 2 8 7 9 9 6 0 2 3 4 9 12 11 10 9 8 -6 -12 -13 -12 -12 -11 -11 -11 -10 -10 -11 -11 -11 -12 -11 -10 -10 -8 -8 -8 -10
-1 -2 -2 -3 -4 -4 -5 -6 4 8 8 9 11 8 7 10 13 12 13 13 9 9 -14 -17 -16 -15 -14 -13 -13 -13 -13 -13 -12 -12 -13 -12 -12 -12 -11 -10 -8 -9 -11
-6 -5 -6 -6 -8 -9 -10 -10 -12 -7 1 5 7 8 10 11 11 12 12 8 5 -1 -26 -21 -18 -16 -16 -14 -14 -14 -15 -14 -13 -14 -13 -13 -12 -12 -11 -11 -10 -10 -11
-13 -11 -12 -12 -13 -13 -13 -15 -18 -19 -18 -14 -4 3 8 10 9 9 7 -3 -16 -15 -28 -24 -19 -18 -17 -17 -16 -16 -15 -15 -15 -15 -15 -14 -13 -13 -12 -12 -11 -12 -12
-11 -13 -17 -18 -17 -17 -17 -17 -20 -22 -21 -20 -19 -8 -2 6 4 2 1 -23 -27 -18 -18 -18 -18 -18 -18 -18 -17 -16 -16 -16 -16 -16 -15 -14 -13 -12 -13 -11 -11 -12 -12
-19 -9 -17 -22 -23 -21 -20 -21 -20 -20 -21 -18 -16 -13 -7 -11 -14 -15 -16 -22 -18 -17 -17 -18 -18 -18 -19 -19 -18 -17 -17 -17 -17 -16 -15 -14 -13 -12 -12 -10 -12 -13 -13
-24 -23 -19 -25 -26 -27 -27 -26 -26 -28 -25 -24 -21 -17 7 -16 -17 -19 -18 -17 -22 -19 -18 -17 -17 -19 -19 -19 -18 -18 -18 -17 -17 -15 -14 -14 -13 -13 -10 -10 -12 -12 -13
-25 -26 -27 -27 -27 -26 -26 -27 -29 -29 -28 -27 -19 -17 1 -23 -24 -18 -17 -17 -17 -18 -22 -21 -19 -19 -19 -18 -17 -17 -18 -18 -16 -14 -14 -14 -13 -9 -10 -11 -12 -12 -13
-25 -26 -27 -28 -29 -25 -27 -28 -29 -29 -28 -26 -23 -19 -17 -19 -22 -22 -18 -18 -17 -17 -17 -20 -20 -19 -17 -17 -17 -16 -17 -17 -15 -14 -14 -12 -9 -9 -11 -13 -13 -13 -13
-27 -27 -26 -26 -28 -27 -28 -26 -26 -25 -26 -26 -25 -22 -20 -20 -19 -20 -20 -18 -17 -17 -17 -18 -17 -18 -17 -17 -17 -16 -15 -14 -13 -10 -9 -7 -9 -12 -12 -13 -13 -13 -14
-28 -27 -26 -25 -28 -28 -29 -27 -25 -28 -26 -22 -22 -22 -21 -21 -20 -20 -19 -18 -18 -18 -17 -17 -16 -15 -16 -17 -18 -19 -18 -12 -8 -3 -0 -11 -14 -14 -14 -13 -12 -13 -13
-24 -27 -26 -27 -27 -28 -29 -26 -24 -25 -22 -20 -21 -21 -21 -21 -19 -19 -19 -19 -18 -17 -19 -16 -14 -13 -14 -15 -16 -11 -7 0 3 8 -7 -16 -17 -14 -13 -13 -12 -13 -12
Lifted_Index
3 3 4 4 4 3 3 4 4 5 5 6 6 7 8 9 10 10 10 11 11 12 13 13 13 14 15 16 16 16 16 16 15 15 16 16 17 17 17 18 18 19 18
3 3 4 4 4 4 5 6 7 7 7 8 9 10 10 11 12 13 13 13 13 14 14 14 15 15 16 16 17 17 17 17 16 15 16 16 18 18 19 19 20 21 21
2 3 4 4 5 6 8 9 10 10 11 12 12 13 14 14 15 15 15 15 15 16 16 16 16 16 17 17 17 18 18 18 17 17 17 18 20 21 22 22 22 22 23
3 4 5 7 8 9 11 12 13 13 13 14 15 15 16 17 17 17 17 17 17 17 18 19 19 19 19 20 20 20 20 20 19 19 19 20 21 22 22 22 22 22 22
6 7 8 10 11 12 13 13 14 14 15 15 16 16 17 18 19 19 19 19 19 20 21 22 23 23 23 23 23 22 22 22 21 21 21 21 21 22 22 22 22 22 22
9 10 11 12 12 13 14 15 15 16 16 17 17 18 19 21 23 23 22 22 22 22 23 24 25 25 24 24 24 24 24 23 22 22 22 21 22 22 23 23 23 22 21
11 11 12 13 14 15 16 17 18 18 19 19 20 21 22 24 25 25 25 24 24 24 24 24 24 24 23 23 23 23 23 23 23 23 23 23 23 24 24 24 24 23 23
13 14 15 16 17 17 18 19 20 21 22 22 23 23 23 24 25 25 25 24 24 24 24 24 23 23 23 23 23 22 22 23 24 24 24 25 25 26 26 26 25 24 24
16 17 18 19 19 20 21 21 22 23 23 23 24 24 24 24 25 25 25 24 23 23 23 23 23 23 24 24 23 22 22 23 24 25 25 26 26 27 27 26 25 24 23
18 19 20 21 21 21 22 23 23 23 23 23 24 24 24 24 24 24 24 23 23 22 22 23 23 23 24 24 24 23 22 23 24 25 25 25 26 26 27 26 26 24 23
21 21 22 22 22 23 23 23 23 23 23 23 23 24 24 24 24 24 24 23 23 22 22 22 23 24 24 25 25 24 24 25 25 25 25 25 25 26 26 27 27 26 26
22 22 22 23 23 23 23 23 23 23 23 22 23 23 24 24 24 24 24 24 23 22 22 23 24 24 25 25 25 26 26 26 25 24 24 24 25 25 26 26 27 27 26
22 22 22 23 23 23 23 23 23 23 22 22 22 23 23 24 24 24 24 24 24 23 24 24 25 25 25 25 25 25 25 25 24 23 23 23 24 24 25 25 25 25 25
22 22 22 23 23 23 23 23 23 23 23 23 23 23 23 24 24 25 25 25 25 25 25 25 25 24 24 24 24 24 24 23 23 22 22 22 22 22 22 22 22 22 22
22 22 23 23 23 24 24 24 25 25 25 25 25 24 24 24 25 26 27 27 26 26 25 24 23 22 21 21 21 22 22 22 21 21 21 21 21 20 20 21 21 21 20
22 23 23 24 24 24 24 25 25 26 27 26 26 26 25 26 26 27 27 27 26 25 24 22 21 20 20 19 20 20 20 20 20 20 20 20 20 20 20 20 20 19 19
23 24 24 24 24 24 25 25 25 26 26 26 26 26 26 26 26 26 26 25 25 23 22 20 20 20 20 20 20 20 20 20 21 21 21 20 20 19 19 18 18 17 17
24 25 25 25 25 25 25 25 25 24 24 24 25 25 25 25 25 25 25 24 23 22 21 20 20 20 20 20 20 20 20 20 21 20 20 19 19 18 17 16 16 15 15
26 26 26 26 26 26 26 25 25 24 24 23 23 23 24 24 24 24 24 23 22 21 21 20 20 20 20 21 21 20 20 20 20 19 18 17 17 16 15 15 15 14 14
26 26 26 26 26 26 25 25 25 24 24 23 23 23 23 23 22 23 23 23 22 21 21 20 20 21 21 21 20 20 19 19 18 17 16 15 15 15 14 14 14 14 14
26 26 26 26 26 26 25 25 24 24 23 23 22 22 22 22 21 22 22 22 21 21 21 21 21 21 21 20 20 19 18 17 16 15 15 14 14 14 14 14 14 15 15
26 26 26 26 26 25 25 25 24 24 23 22 21 21 21 21 21 21 21 21 21 21 21 21 21 20 20 20 19 18 16 16 15 14 14 13 13 14 14 14 15 15 15
26 26 25 25 25 25 24 24 24 23 22 21 20 20 20 20 20 21 21 20 20 20 20 20 20 20 19 19 18 17 15 14 14 14 13 13 14 14 14 15 15 15 16
25 25 25 24 24 24 24 23 23 22 21 20 19 19 19 20 20 20 20 20 20 20 19 19 19 19 18 17 16 15 14 14 14 14 14 14 14 14 15 15 16 16 16
25 25 24 24 24 23 23 22 22 21 19 19 18 18 19 19 19 19 19 19 19 19 19 19 18 18 17 16 15 14 14 13 13 13 14 14 14 15 15 16 16 17 16
24 24 24 24 23 23 22 21 21 20 19 18 18 18 18 18 18 18 19 19 19 19 18 18 18 17 16 15 14 13 13 13 13 13 14 14 14 15 16 16 17 17 17